Hourly Weather Otminovo

Today, 24 July, Saturday

Time Temperature Precipitation Wind Pressure Humidity
00:00 +16°C° 0 mm 2 mps 748 mmHg 89%
01:00 +15°C° 0 mm 2 mps 748 mmHg 90%
02:00 +15°C° 0 mm 2 mps 748 mmHg 92%
03:00 +15°C° 0 mm 2 mps 748 mmHg 93%
04:00 +15°C° 0 mm 2 mps 748 mmHg 94%
05:00 +15°C° 0 mm 1 mps 748 mmHg 94%
06:00 +16°C° 0 mm 2 mps 748 mmHg 89%
07:00 +18°C° 0 mm 2 mps 748 mmHg 84%
08:00 +20°C° 0 mm 2 mps 748 mmHg 77%
09:00 +21°C° 0.1 mm 2 mps 748 mmHg 74%
10:00 +23°C° 0.1 mm 2 mps 749 mmHg 70%
11:00 +24°C° 0.1 mm 2 mps 749 mmHg 66%
12:00 +24°C° 0.4 mm 2 mps 749 mmHg 66%
13:00 +24°C° 0.4 mm 2 mps 749 mmHg 65%
14:00 +25°C° 0.4 mm 2 mps 748 mmHg 64%
15:00 +25°C° 0.5 mm 2 mps 749 mmHg 64%
16:00 +25°C° 0.5 mm 1 mps 749 mmHg 64%
17:00 +25°C° 0.5 mm 1 mps 749 mmHg 63%
18:00 +23°C° 0.2 mm 1 mps 749 mmHg 68%
19:00 +22°C° 0.2 mm 1 mps 749 mmHg 72%
20:00 +21°C° 0.2 mm 1 mps 749 mmHg 77%
21:00 +20°C° 0 mm 1 mps 749 mmHg 78%
22:00 +20°C° 0 mm 1 mps 749 mmHg 79%
23:00 +19°C° 0 mm 1 mps 749 mmHg 80%

Tomorrow, 25 July, Sunday

Time Temperature Precipitation Wind Pressure Humidity
00:00 +19°C° 0 mm 1 mps 749 mmHg 80%
01:00 +19°C° 0 mm 1 mps 750 mmHg 80%
02:00 +19°C° 0 mm 1 mps 750 mmHg 80%
03:00 +19°C° 0 mm 1 mps 750 mmHg 80%
04:00 +19°C° 0 mm 1 mps 750 mmHg 81%
05:00 +19°C° 0 mm 1 mps 750 mmHg 81%
06:00 +19°C° 0 mm 1 mps 750 mmHg 80%
07:00 +20°C° 0 mm 1 mps 750 mmHg 79%
08:00 +21°C° 0 mm 1 mps 750 mmHg 78%
09:00 +22°C° 0.2 mm 1 mps 750 mmHg 75%
10:00 +23°C° 0.2 mm 2 mps 751 mmHg 72%
11:00 +24°C° 0.2 mm 2 mps 751 mmHg 69%
12:00 +25°C° 0.3 mm 2 mps 751 mmHg 63%
13:00 +26°C° 0.3 mm 2 mps 751 mmHg 56%
14:00 +28°C° 0.3 mm 2 mps 751 mmHg 49%
15:00 +27°C° 0.1 mm 2 mps 750 mmHg 53%
16:00 +26°C° 0.1 mm 2 mps 750 mmHg 56%
17:00 +26°C° 0.1 mm 2 mps 750 mmHg 59%
18:00 +24°C° 0 mm 2 mps 750 mmHg 64%
19:00 +23°C° 0 mm 2 mps 751 mmHg 68%
20:00 +21°C° 0 mm 2 mps 751 mmHg 73%
21:00 +20°C° 0 mm 2 mps 751 mmHg 75%
22:00 +19°C° 0 mm 2 mps 751 mmHg 77%
23:00 +19°C° 0 mm 2 mps 751 mmHg 78%

Day after tomorrow, 26 July, Monday

Time Temperature Precipitation Wind Pressure Humidity
00:00 +18°C° 0 mm 2 mps 751 mmHg 80%
01:00 +17°C° 0 mm 2 mps 751 mmHg 81%
02:00 +17°C° 0 mm 2 mps 751 mmHg 82%
03:00 +17°C° 0 mm 2 mps 751 mmHg 82%
04:00 +16°C° 0 mm 2 mps 751 mmHg 82%
05:00 +16°C° 0 mm 2 mps 751 mmHg 83%
06:00 +18°C° 0 mm 3 mps 751 mmHg 77%
07:00 +20°C° 0 mm 3 mps 752 mmHg 71%
08:00 +22°C° 0 mm 4 mps 752 mmHg 66%
09:00 +23°C° 0 mm 4 mps 752 mmHg 61%
10:00 +26°C° 0 mm 4 mps 752 mmHg 55%
11:00 +28°C° 0 mm 4 mps 752 mmHg 50%
12:00 +28°C° 0 mm 4 mps 751 mmHg 48%
13:00 +29°C° 0 mm 4 mps 751 mmHg 46%
14:00 +29°C° 0 mm 5 mps 751 mmHg 44%
15:00 +29°C° 0 mm 4 mps 751 mmHg 46%
16:00 +29°C° 0 mm 4 mps 751 mmHg 48%
17:00 +29°C° 0 mm 4 mps 750 mmHg 50%
18:00 +27°C° 0 mm 4 mps 750 mmHg 55%
19:00 +25°C° 0 mm 4 mps 750 mmHg 60%
20:00 +23°C° 0 mm 4 mps 750 mmHg 65%
21:00 +22°C° 0 mm 4 mps 750 mmHg 65%
22:00 +22°C° 0 mm 4 mps 750 mmHg 65%
23:00 +21°C° 0 mm 4 mps 750 mmHg 65%

27 July, Tuesday

Time Temperature Precipitation Wind Pressure Humidity
00:00 +21°C° 0 mm 4 mps 750 mmHg 68%
01:00 +20°C° 0 mm 4 mps 750 mmHg 71%
02:00 +19°C° 0 mm 4 mps 750 mmHg 75%
03:00 +19°C° 0 mm 4 mps 750 mmHg 77%
04:00 +19°C° 0 mm 4 mps 750 mmHg 78%
05:00 +19°C° 0 mm 4 mps 749 mmHg 80%
06:00 +20°C° 0 mm 4 mps 749 mmHg 76%
07:00 +21°C° 0 mm 5 mps 749 mmHg 73%
08:00 +23°C° 0 mm 5 mps 749 mmHg 69%
09:00 +24°C° 0 mm 6 mps 749 mmHg 63%
10:00 +27°C° 0 mm 6 mps 749 mmHg 58%
11:00 +28°C° 0 mm 6 mps 749 mmHg 53%
12:00 +29°C° 0 mm 6 mps 749 mmHg 50%
13:00 +30°C° 0 mm 6 mps 748 mmHg 48%
14:00 +32°C° 0 mm 6 mps 748 mmHg 45%
15:00 +32°C° 0 mm 5 mps 748 mmHg 49%
16:00 +30°C° 0 mm 4 mps 748 mmHg 52%
17:00 +30°C° 0 mm 3 mps 747 mmHg 56%
18:00 +28°C° 0.2 mm 2 mps 747 mmHg 64%
19:00 +26°C° 0.2 mm 2 mps 747 mmHg 73%
20:00 +24°C° 0.2 mm 2 mps 747 mmHg 81%
21:00 +23°C° 2.8 mm 2 mps 747 mmHg 86%
22:00 +21°C° 2.8 mm 2 mps 747 mmHg 92%
23:00 +20°C° 2.8 mm 2 mps 747 mmHg 97%

28 July, Wednesday

Time Temperature Precipitation Wind Pressure Humidity
00:00 +21°C° 1.2 mm 1 mps 747 mmHg 97%
01:00 +21°C° 1.2 mm 1 mps 747 mmHg 97%
02:00 +21°C° 1.2 mm 1 mps 746 mmHg 97%
03:00 +21°C° 0.4 mm 1 mps 746 mmHg 97%
04:00 +21°C° 0.4 mm 1 mps 746 mmHg 97%
05:00 +20°C° 0.4 mm 1 mps 746 mmHg 97%
06:00 +21°C° 0 mm 1 mps 746 mmHg 94%
07:00 +22°C° 0 mm 1 mps 746 mmHg 91%
08:00 +23°C° 0 mm 1 mps 746 mmHg 88%
09:00 +24°C° 0.1 mm 1 mps 746 mmHg 82%
10:00 +25°C° 0.1 mm 2 mps 746 mmHg 75%
11:00 +27°C° 0.1 mm 2 mps 746 mmHg 68%
12:00 +27°C° 0.1 mm 2 mps 746 mmHg 64%
13:00 +28°C° 0.1 mm 2 mps 746 mmHg 60%
14:00 +29°C° 0.1 mm 3 mps 746 mmHg 56%
15:00 +29°C° 0.1 mm 2 mps 746 mmHg 57%
16:00 +28°C° 0.1 mm 2 mps 746 mmHg 58%
17:00 +28°C° 0.1 mm 2 mps 746 mmHg 59%
18:00 +27°C° 0.3 mm 1 mps 746 mmHg 67%
19:00 +25°C° 0.3 mm 1 mps 745 mmHg 74%
20:00 +23°C° 0.3 mm 1 mps 745 mmHg 81%
21:00 +22°C° 0 mm 1 mps 745 mmHg 82%
22:00 +22°C° 0 mm 1 mps 745 mmHg 83%
23:00 +21°C° 0 mm 1 mps 745 mmHg 83%

29 July, Thursday

Time Temperature Precipitation Wind Pressure Humidity
00:00 +21°C° 0 mm 1 mps 745 mmHg 85%
01:00 +21°C° 0 mm 1 mps 745 mmHg 87%
02:00 +19°C° 0 mm 2 mps 745 mmHg 89%
03:00 +19°C° 0 mm 2 mps 745 mmHg 90%
04:00 +19°C° 0 mm 2 mps 745 mmHg 91%
05:00 +19°C° 0 mm 2 mps 745 mmHg 91%
06:00 +20°C° 0 mm 3 mps 746 mmHg 88%
07:00 +21°C° 0 mm 3 mps 746 mmHg 84%
08:00 +22°C° 0 mm 3 mps 746 mmHg 80%
09:00 +24°C° 0 mm 3 mps 746 mmHg 75%
10:00 +25°C° 0 mm 4 mps 746 mmHg 69%
11:00 +26°C° 0 mm 4 mps 747 mmHg 63%
12:00 +27°C° 0 mm 4 mps 747 mmHg 60%
13:00 +28°C° 0 mm 4 mps 747 mmHg 56%
14:00 +28°C° 0 mm 4 mps 747 mmHg 52%
15:00 +28°C° 0 mm 3 mps 746 mmHg 53%
16:00 +28°C° 0 mm 3 mps 746 mmHg 54%
17:00 +28°C° 0 mm 3 mps 746 mmHg 55%
18:00 +26°C° 0 mm 3 mps 746 mmHg 61%
19:00 +24°C° 0 mm 3 mps 746 mmHg 68%
20:00 +21°C° 0 mm 2 mps 746 mmHg 75%
21:00 +20°C° 0 mm 2 mps 746 mmHg 76%
22:00 +20°C° 0 mm 1 mps 747 mmHg 77%
23:00 +19°C° 0 mm 1 mps 747 mmHg 78%
Show more